Weather History for HESN - January, 2013

Change the Weather History Date:

Saturday, January 19, 2013

  Actual Average Record
Temperature  
Mean Temperature 72 °F -  
Max Temperature 85 °F 73 °F 85 °F (2013)
Min Temperature 58 °F 51 °F 42 °F (2005)
Cooling Degree Days 6    
Growing Degree Days 22 (Base 50)    
Moisture  
Dew Point 33 °F    
Average Humidity 26    
Maximum Humidity 40    
Minimum Humidity 9    
Precipitation  
Precipitation 0.00 in 0.00 in - ()
Sea Level Pressure  
Sea Level Pressure 30.03 in    
Wind  
Wind Speed 7 mph ()    
Max Wind Speed 10 mph    
Max Gust Speed -    
Visibility 6.0 miles    
Events      
Averages and records for this station are not official NWS values.
T = Trace of Precipitation, MM = Missing Value Source: Averaged Metar Reports

Daily Weather History Graph

Daily Weather History Graph

Search for Another Location

Airport or City:

Trip Planner

Search our weather history database for the weather conditions in past years. The results will help you decide how hot, cold, wet, or windy it might be!

Date:

Astronomy

Jan. 19, 2013 Rise Set
Actual Time 6:33 AM EET 5:25 PM EET
Civil Twilight 6:09 AM EET 5:50 PM EET
Nautical Twilight 5:41 AM EET 6:17 PM EET
Astronomical Twilight 5:14 AM EET 6:44 PM EET
Moon 11:31 AM EET (1/19) No Moon Set
Length of Visible Light 11h 40m
Length of Day
10h 52m
First Quarter, 54% of the Moon is Illuminated
Jan 19
First Quarter
Jan 27
Full
Feb 3
Last Quarter
Feb 10
New
Feb 17
First Quarter

Hourly Weather History & Observations

Time (EET) Temp. Dew Point Humidity Pressure Visibility Wind Dir Wind Speed Gust Speed Precip Events Conditions
12:00 AM 68.0 °F 41.0 °F 37% 29.98 in - North 9.2 mph - N/A   Clear
1:00 AM 66.2 °F 41.0 °F 40% 29.98 in - North 8.1 mph - N/A   Clear
2:00 AM 63 °F 34 °F 22% 29.99 in 6 mi NNW 5.8 mph - -  
2:00 AM 62.6 °F 33.8 °F 34% 29.98 in - NNW 5.8 mph - N/A   Clear
3:00 AM 62.6 °F 33.8 °F 34% 29.98 in - NNW 5.8 mph - N/A   Clear
4:00 AM 60.8 °F 33.8 °F 36% 29.98 in - NNW 5.8 mph - N/A   Clear
5:00 AM 59.0 °F 33.8 °F 39% 30.01 in - NNE 4.6 mph - N/A   Clear
6:00 AM 59.0 °F 33.8 °F 39% 30.01 in - North 5.8 mph - N/A   Clear
7:00 AM 59.0 °F 33.8 °F 39% 30.04 in - North 5.8 mph - N/A   Clear
8:00 AM 61 °F 34 °F 24% 30.06 in 6 mi NNW 3.5 mph - -  
8:00 AM 60.8 °F 33.8 °F 36% 30.06 in - NNW 3.5 mph - N/A   Clear
9:00 AM 66.2 °F 33.8 °F 30% 30.06 in - North 5.8 mph - N/A   Clear
9:48 AM 66.2 °F 33.8 °F 30% 30.06 in - North 5.8 mph - N/A   Clear
10:00 AM 69.8 °F 33.8 °F 27% 30.09 in - North 8.1 mph - N/A   Clear
11:00 AM 73.4 °F 33.8 °F 23% 30.09 in - North 9.2 mph - N/A   Clear
12:00 PM 77.0 °F 35.6 °F 22% 30.04 in - North 10.4 mph - N/A   Clear
1:00 PM 77.0 °F 35.6 °F 22% 30.04 in - North 10.4 mph - N/A   Clear
2:00 PM 84 °F 34 °F 9% 29.97 in 6 mi NNE 9.2 mph - -  
2:00 PM 84.2 °F 33.8 °F 16% 29.98 in - NNE 9.2 mph - N/A   Clear
3:00 PM 86.0 °F 33.8 °F 15% 30.01 in - NNE 9.2 mph - N/A   Clear
4:00 PM 84.2 °F 33.8 °F 16% 30.01 in - North 10.4 mph - N/A   Clear
5:00 PM 80.6 °F 33.8 °F 18% 30.04 in - NNW 9.2 mph - N/A   Clear
6:00 PM 78.8 °F 32.0 °F 18% 30.04 in - North 10.4 mph - N/A   Clear
7:00 PM 75.2 °F 32.0 °F 21% 30.06 in - North 10.4 mph - N/A   Clear
8:00 PM 72 °F 30 °F 11% 30.06 in 6 mi NNE 9.2 mph - -  
8:00 PM 71.6 °F 30.2 °F 22% 30.06 in - NNE 9.2 mph - N/A   Clear
9:00 PM 69.8 °F 26.6 °F 20% 30.09 in - North 8.1 mph - N/A   Clear
10:00 PM 68.0 °F 26.6 °F 21% 30.09 in - North 8.1 mph - N/A   Clear
11:00 PM 66.2 °F 24.8 °F 21% 30.06 in - North 9.2 mph - N/A   Clear